Time,TemperatureF,DewpointF,PressureIn,WindDirection,WindDirectionDegrees,WindSpeedMPH,WindSpeedGustMPH,Humidity,HourlyPrecipIn,Conditions,Clouds,dailyrainin,SoftwareType,DateUTC
2013-03-30 00:00:00,66.0,60.3,30.07,East,99,5.0,10.0,82,0.00,,,0.00,VWS V14.01,2013-03-30 05:00:00,
2013-03-30 00:05:00,65.8,60.2,30.06,SE,145,3.0,7.0,82,0.00,,,0.00,VWS V14.01,2013-03-30 05:05:00,
2013-03-30 00:10:00,65.7,60.1,30.07,SSE,153,3.0,9.0,82,0.00,,,0.00,VWS V14.01,2013-03-30 05:10:00,
2013-03-30 00:15:00,65.6,60.3,30.07,SE,125,3.0,9.0,83,0.00,,,0.00,VWS V14.01,2013-03-30 05:15:00,
2013-03-30 00:20:00,65.4,60.1,30.06,South,176,2.0,9.0,83,0.00,,,0.00,VWS V14.01,2013-03-30 05:20:00,
2013-03-30 00:25:00,65.3,60.0,30.06,SE,141,2.0,9.0,83,0.00,,,0.00,VWS V14.01,2013-03-30 05:25:00,
2013-03-30 00:30:00,65.2,60.2,30.06,SE,146,2.0,9.0,84,0.00,,,0.00,VWS V14.01,2013-03-30 05:30:00,
2013-03-30 00:35:00,65.2,60.2,30.06,SSE,147,1.0,5.0,84,0.00,,,0.00,VWS V14.01,2013-03-30 05:35:00,
2013-03-30 00:40:00,65.1,60.2,30.07,ESE,106,2.0,8.0,84,0.00,,,0.00,VWS V14.01,2013-03-30 05:40:00,
2013-03-30 00:45:00,65.1,60.2,30.07,SSE,159,4.0,8.0,84,0.00,,,0.00,VWS V14.01,2013-03-30 05:45:00,
2013-03-30 00:50:00,65.1,60.2,30.07,SE,145,1.0,8.0,84,0.00,,,0.00,VWS V14.01,2013-03-30 05:50:00,
2013-03-30 00:55:00,65.1,60.5,30.07,SE,134,1.0,8.0,85,0.00,,,0.00,VWS V14.01,2013-03-30 05:55:00,
2013-03-30 01:00:00,65.0,60.4,30.07,SE,127,1.0,8.0,85,0.00,,,0.00,VWS V14.01,2013-03-30 06:00:00,
2013-03-30 01:05:00,65.1,60.5,30.07,SE,143,2.0,6.0,85,0.00,,,0.00,VWS V14.01,2013-03-30 06:05:00,
2013-03-30 01:10:00,65.1,60.5,30.07,SE,144,1.0,6.0,85,0.00,,,0.00,VWS V14.01,2013-03-30 06:10:00,
2013-03-30 01:15:00,65.1,60.5,30.07,SE,145,2.0,6.0,85,0.00,,,0.00,VWS V14.01,2013-03-30 06:15:00,
2013-03-30 01:20:00,65.1,60.5,30.07,South,172,5.0,6.0,85,0.00,,,0.00,VWS V14.01,2013-03-30 06:20:00,
2013-03-30 01:25:00,65.1,60.5,30.07,ESE,118,2.0,10.0,85,0.00,,,0.00,VWS V14.01,2013-03-30 06:25:00,
2013-03-30 01:30:00,65.0,60.7,30.07,ESE,105,2.0,10.0,86,0.00,,,0.00,VWS V14.01,2013-03-30 06:30:00,
2013-03-30 01:35:00,65.1,60.8,30.07,South,172,1.0,5.0,86,0.00,,,0.00,VWS V14.01,2013-03-30 06:35:00,
2013-03-30 01:40:00,65.1,60.8,30.07,East,91,0.0,5.0,86,0.00,,,0.00,VWS V14.01,2013-03-30 06:40:00,
2013-03-30 01:45:00,65.0,60.7,30.07,SE,141,1.0,5.0,86,0.00,,,0.00,VWS V14.01,2013-03-30 06:45:00,
2013-03-30 01:50:00,65.0,60.7,30.07,SSE,150,1.0,5.0,86,0.00,,,0.00,VWS V14.01,2013-03-30 06:50:00,
2013-03-30 01:55:00,65.0,60.7,30.07,ESE,115,3.0,5.0,86,0.00,,,0.00,VWS V14.01,2013-03-30 06:55:00,
2013-03-30 02:00:00,65.0,60.7,30.07,ESE,117,3.0,7.0,86,0.00,,,0.00,VWS V14.01,2013-03-30 07:00:00,
2013-03-30 02:05:00,65.0,60.7,30.06,SSE,154,2.0,4.0,86,0.00,,,0.00,VWS V14.01,2013-03-30 07:05:00,
2013-03-30 02:10:00,65.0,60.7,30.06,SE,143,2.0,6.0,86,0.00,,,0.00,VWS V14.01,2013-03-30 07:10:00,
2013-03-30 02:15:00,65.0,60.7,30.06,South,190,3.0,6.0,86,0.00,,,0.00,VWS V14.01,2013-03-30 07:15:00,
2013-03-30 02:20:00,65.0,60.7,30.05,ESE,118,2.0,6.0,86,0.00,,,0.00,VWS V14.01,2013-03-30 07:20:00,
2013-03-30 02:25:00,65.0,60.7,30.05,SSW,195,1.0,6.0,86,0.00,,,0.00,VWS V14.01,2013-03-30 07:25:00,
2013-03-30 02:30:00,65.0,60.7,30.04,SE,144,1.0,6.0,86,0.00,,,0.00,VWS V14.01,2013-03-30 07:30:00,
2013-03-30 02:35:00,65.0,60.7,30.04,SE,136,4.0,10.0,86,0.00,,,0.00,VWS V14.01,2013-03-30 07:35:00,
2013-03-30 02:40:00,65.0,60.7,30.03,SSW,200,4.0,10.0,86,0.00,,,0.00,VWS V14.01,2013-03-30 07:40:00,
2013-03-30 02:45:00,65.0,60.7,30.03,East,94,4.0,10.0,86,0.00,,,0.00,VWS V14.01,2013-03-30 07:45:00,
2013-03-30 02:50:00,65.0,61.0,30.03,SE,146,3.0,10.0,87,0.00,,,0.00,VWS V14.01,2013-03-30 07:50:00,
2013-03-30 02:55:00,65.0,61.0,30.03,ESE,110,4.0,10.0,87,0.00,,,0.00,VWS V14.01,2013-03-30 07:55:00,
2013-03-30 03:00:00,65.0,61.0,30.02,SSE,149,4.0,10.0,87,0.00,,,0.00,VWS V14.01,2013-03-30 08:00:00,
2013-03-30 03:05:00,64.9,60.9,30.03,ENE,71,4.0,7.0,87,0.00,,,0.00,VWS V14.01,2013-03-30 08:05:00,
2013-03-30 03:10:00,64.9,60.9,30.03,South,181,5.0,8.0,87,0.00,,,0.00,VWS V14.01,2013-03-30 08:10:00,
2013-03-30 03:15:00,64.9,60.9,30.03,SE,141,5.0,8.0,87,0.00,,,0.00,VWS V14.01,2013-03-30 08:15:00,
2013-03-30 03:20:00,64.9,60.9,30.03,SE,124,2.0,8.0,87,0.00,,,0.00,VWS V14.01,2013-03-30 08:20:00,
2013-03-30 03:25:00,64.9,60.9,30.03,SSE,151,2.0,8.0,87,0.00,,,0.00,VWS V14.01,2013-03-30 08:25:00,
2013-03-30 03:30:00,64.9,60.9,30.03,SW,214,7.0,10.0,87,0.00,,,0.00,VWS V14.01,2013-03-30 08:30:00,
2013-03-30 03:35:00,64.9,60.9,30.03,SSE,149,3.0,6.0,87,0.00,,,0.00,VWS V14.01,2013-03-30 08:35:00,
2013-03-30 03:40:00,64.9,60.9,30.03,SSE,163,5.0,9.0,87,0.00,,,0.00,VWS V14.01,2013-03-30 08:40:00,
2013-03-30 03:45:00,64.9,60.9,30.03,SE,136,3.0,10.0,87,0.00,,,0.00,VWS V14.01,2013-03-30 08:45:00,
2013-03-30 03:50:00,64.9,60.9,30.03,SSE,159,5.0,10.0,87,0.00,,,0.00,VWS V14.01,2013-03-30 08:50:00,
2013-03-30 03:55:00,64.8,60.8,30.03,SE,136,3.0,10.0,87,0.00,,,0.00,VWS V14.01,2013-03-30 08:55:00,
2013-03-30 04:00:00,64.8,60.8,30.03,South,188,4.0,10.0,87,0.00,,,0.00,VWS V14.01,2013-03-30 09:00:00,
2013-03-30 04:05:00,64.8,60.8,30.02,SSE,163,2.0,6.0,87,0.00,,,0.00,VWS V14.01,2013-03-30 09:05:00,
2013-03-30 04:10:00,64.8,60.8,30.02,SW,228,3.0,10.0,87,0.00,,,0.00,VWS V14.01,2013-03-30 09:10:00,
2013-03-30 04:15:00,64.7,60.8,30.02,SSW,199,5.0,12.0,87,0.00,,,0.00,VWS V14.01,2013-03-30 09:15:00,
2013-03-30 04:20:00,64.7,60.8,30.02,ESE,112,3.0,12.0,87,0.00,,,0.00,VWS V14.01,2013-03-30 09:20:00,
2013-03-30 04:25:00,64.7,60.8,30.02,SE,140,3.0,12.0,87,0.00,,,0.00,VWS V14.01,2013-03-30 09:25:00,
2013-03-30 04:30:00,64.7,60.8,30.01,ESE,118,4.0,12.0,87,0.00,,,0.00,VWS V14.01,2013-03-30 09:30:00,
2013-03-30 04:34:00,64.7,60.8,30.02,South,185,3.0,6.0,87,0.00,,,0.00,VWS V14.01,2013-03-30 09:34:00,
2013-03-30 04:39:00,64.6,60.7,30.01,SE,140,5.0,9.0,87,0.00,,,0.00,VWS V14.01,2013-03-30 09:39:00,
2013-03-30 04:44:00,64.6,60.7,30.01,SW,221,6.0,9.0,87,0.00,,,0.00,VWS V14.01,2013-03-30 09:44:00,
2013-03-30 04:49:00,64.6,60.7,30.01,SSW,193,6.0,9.0,87,0.00,,,0.00,VWS V14.01,2013-03-30 09:49:00,
2013-03-30 04:54:00,64.5,60.5,30.01,SSE,155,2.0,9.0,87,0.00,,,0.00,VWS V14.01,2013-03-30 09:54:00,
2013-03-30 04:59:00,64.5,60.5,30.01,SSE,158,3.0,10.0,87,0.00,,,0.00,VWS V14.01,2013-03-30 09:59:00,
2013-03-30 05:04:00,64.4,60.8,30.01,South,191,5.0,10.0,88,0.00,,,0.00,VWS V14.01,2013-03-30 10:04:00,
2013-03-30 05:09:00,64.4,60.8,30.00,South,177,3.0,10.0,88,0.00,,,0.00,VWS V14.01,2013-03-30 10:09:00,
2013-03-30 05:14:00,64.3,60.7,30.00,SW,225,5.0,10.0,88,0.00,,,0.00,VWS V14.01,2013-03-30 10:14:00,
2013-03-30 05:19:00,64.2,60.6,30.00,SSE,167,3.0,10.0,88,0.00,,,0.00,VWS V14.01,2013-03-30 10:19:00,
2013-03-30 05:24:00,64.2,60.6,30.00,SSE,166,3.0,10.0,88,0.00,,,0.00,VWS V14.01,2013-03-30 10:24:00,
2013-03-30 05:29:00,64.1,60.8,30.00,South,186,7.0,11.0,89,0.00,,,0.00,VWS V14.01,2013-03-30 10:29:00,
2013-03-30 05:34:00,64.1,60.8,30.01,SE,144,5.0,10.0,89,0.00,,,0.00,VWS V14.01,2013-03-30 10:34:00,
2013-03-30 05:39:00,64.1,60.8,30.02,SE,145,2.0,10.0,89,0.00,,,0.00,VWS V14.01,2013-03-30 10:39:00,
2013-03-30 05:44:00,64.1,60.8,30.03,NE,37,0.0,10.0,89,0.00,,,0.00,VWS V14.01,2013-03-30 10:44:00,
2013-03-30 05:49:00,64.1,60.8,30.04,SW,218,1.0,10.0,89,0.00,,,0.00,VWS V14.01,2013-03-30 10:49:00,
2013-03-30 05:54:00,64.1,60.8,30.05,SE,135,0.0,10.0,89,0.00,,,0.00,VWS V14.01,2013-03-30 10:54:00,
2013-03-30 05:59:00,64.1,60.8,30.04,SSE,150,2.0,10.0,89,0.00,,,0.00,VWS V14.01,2013-03-30 10:59:00,
2013-03-30 06:04:00,64.1,60.8,30.03,South,169,1.0,4.0,89,0.00,,,0.00,VWS V14.01,2013-03-30 11:04:00,
2013-03-30 06:09:00,64.2,60.9,30.04,SSW,205,2.0,5.0,89,0.00,,,0.00,VWS V14.01,2013-03-30 11:09:00,
2013-03-30 06:14:00,64.1,60.8,30.05,SSE,163,0.0,5.0,89,0.00,,,0.00,VWS V14.01,2013-03-30 11:14:00,
2013-03-30 06:19:00,64.1,60.8,30.04,SSE,163,1.0,5.0,89,0.00,,,0.00,VWS V14.01,2013-03-30 11:19:00,
2013-03-30 06:24:00,64.1,60.8,30.04,South,180,2.0,5.0,89,0.00,,,0.00,VWS V14.01,2013-03-30 11:24:00,
2013-03-30 06:29:00,64.1,60.8,30.04,South,190,1.0,5.0,89,0.00,,,0.00,VWS V14.01,2013-03-30 11:29:00,
2013-03-30 06:34:00,64.1,60.8,30.04,SSW,203,1.0,2.0,89,0.00,,,0.00,VWS V14.01,2013-03-30 11:34:00,
2013-03-30 06:39:00,64.1,60.8,30.04,SSE,161,3.0,3.0,89,0.00,,,0.00,VWS V14.01,2013-03-30 11:39:00,
2013-03-30 06:44:00,64.1,60.8,30.04,ESE,122,2.0,4.0,89,0.00,,,0.00,VWS V14.01,2013-03-30 11:44:00,
2013-03-30 06:49:00,64.1,60.8,30.04,SSW,210,2.0,4.0,89,0.00,,,0.00,VWS V14.01,2013-03-30 11:49:00,
2013-03-30 06:54:00,64.0,60.7,30.04,SSE,150,1.0,5.0,89,0.00,,,0.00,VWS V14.01,2013-03-30 11:54:00,
2013-03-30 06:59:00,64.0,60.7,30.03,SSE,162,3.0,5.0,89,0.00,,,0.00,VWS V14.01,2013-03-30 11:59:00,
2013-03-30 07:04:00,63.9,60.6,30.04,SE,139,2.0,4.0,89,0.00,,,0.00,VWS V14.01,2013-03-30 12:04:00,
2013-03-30 07:09:00,63.9,60.6,30.04,SE,135,1.0,4.0,89,0.00,,,0.00,VWS V14.01,2013-03-30 12:09:00,
2013-03-30 07:14:00,63.8,60.5,30.03,South,170,3.0,4.0,89,0.00,,,0.00,VWS V14.01,2013-03-30 12:14:00,
2013-03-30 07:19:00,63.8,60.8,30.03,East,99,2.0,5.0,90,0.00,,,0.00,VWS V14.01,2013-03-30 12:19:00,
2013-03-30 07:24:00,63.7,60.7,30.04,ESE,119,2.0,5.0,90,0.00,,,0.00,VWS V14.01,2013-03-30 12:24:00,
2013-03-30 07:29:00,63.7,60.7,30.03,SSE,157,1.0,5.0,90,0.00,,,0.00,VWS V14.01,2013-03-30 12:29:00,
2013-03-30 07:34:00,63.6,60.6,30.03,ESE,114,2.0,5.0,90,0.00,,,0.00,VWS V14.01,2013-03-30 12:34:00,
2013-03-30 07:39:00,63.6,60.6,30.04,ESE,122,2.0,5.0,90,0.00,,,0.00,VWS V14.01,2013-03-30 12:39:00,
2013-03-30 07:44:00,63.6,60.6,30.04,SE,141,1.0,5.0,90,0.00,,,0.00,VWS V14.01,2013-03-30 12:44:00,
2013-03-30 07:49:00,63.7,60.7,30.04,East,97,2.0,5.0,90,0.00,,,0.00,VWS V14.01,2013-03-30 12:49:00,
2013-03-30 07:54:00,63.7,60.7,30.04,SSE,148,2.0,5.0,90,0.00,,,0.00,VWS V14.01,2013-03-30 12:54:00,
2013-03-30 07:59:00,63.7,60.7,30.03,SSE,148,2.0,5.0,90,0.00,,,0.00,VWS V14.01,2013-03-30 12:59:00,
2013-03-30 08:04:00,63.8,60.8,30.04,SE,132,1.0,5.0,90,0.00,,,0.00,VWS V14.01,2013-03-30 13:04:00,
2013-03-30 08:09:00,63.8,60.8,30.04,SW,217,4.0,6.0,90,0.00,,,0.00,VWS V14.01,2013-03-30 13:09:00,
2013-03-30 08:14:00,63.9,60.9,30.04,East,88,2.0,6.0,90,0.00,,,0.00,VWS V14.01,2013-03-30 13:14:00,
2013-03-30 08:19:00,63.9,60.9,30.04,SE,139,3.0,6.0,90,0.00,,,0.00,VWS V14.01,2013-03-30 13:19:00,
2013-03-30 08:24:00,63.9,60.9,30.04,SE,143,3.0,6.0,90,0.00,,,0.00,VWS V14.01,2013-03-30 13:24:00,
2013-03-30 08:29:00,64.1,61.1,30.04,South,169,1.0,6.0,90,0.00,,,0.00,VWS V14.01,2013-03-30 13:29:00,
2013-03-30 08:34:00,64.1,61.1,30.04,South,172,3.0,7.0,90,0.00,,,0.00,VWS V14.01,2013-03-30 13:34:00,
2013-03-30 08:39:00,64.2,61.2,30.04,WSW,238,3.0,8.0,90,0.00,,,0.00,VWS V14.01,2013-03-30 13:39:00,
2013-03-30 08:44:00,64.3,61.3,30.04,South,188,1.0,8.0,90,0.00,,,0.00,VWS V14.01,2013-03-30 13:44:00,
2013-03-30 08:49:00,64.4,61.1,30.04,South,186,3.0,8.0,89,0.00,,,0.00,VWS V14.01,2013-03-30 13:49:00,
2013-03-30 08:54:00,64.5,61.5,30.04,SSE,161,1.0,8.0,90,0.00,,,0.00,VWS V14.01,2013-03-30 13:54:00,
2013-03-30 08:59:00,64.5,61.2,30.04,SW,219,4.0,8.0,89,0.00,,,0.00,VWS V14.01,2013-03-30 13:59:00,
2013-03-30 09:04:00,64.6,61.3,30.04,South,176,2.0,8.0,89,0.00,,,0.00,VWS V14.01,2013-03-30 14:04:00,
2013-03-30 09:09:00,64.7,61.4,30.04,SSW,200,2.0,8.0,89,0.00,,,0.00,VWS V14.01,2013-03-30 14:09:00,
2013-03-30 09:14:00,64.9,61.6,30.03,SW,221,2.0,11.0,89,0.00,,,0.00,VWS V14.01,2013-03-30 14:14:00,
2013-03-30 09:19:00,65.1,61.8,30.04,SW,217,12.0,12.0,89,0.00,,,0.00,VWS V14.01,2013-03-30 14:19:00,
2013-03-30 09:24:00,65.3,61.7,30.04,South,191,3.0,12.0,88,0.00,,,0.00,VWS V14.01,2013-03-30 14:24:00,
2013-03-30 09:29:00,65.4,61.8,30.03,East,96,8.0,12.0,88,0.00,,,0.00,VWS V14.01,2013-03-30 14:29:00,
2013-03-30 09:34:00,65.5,61.9,30.04,South,188,5.0,13.0,88,0.00,,,0.00,VWS V14.01,2013-03-30 14:34:00,
2013-03-30 09:39:00,65.6,62.0,30.04,South,184,3.0,13.0,88,0.00,,,0.00,VWS V14.01,2013-03-30 14:39:00,
2013-03-30 09:44:00,65.7,62.0,30.04,SE,135,3.0,13.0,88,0.00,,,0.00,VWS V14.01,2013-03-30 14:44:00,
2013-03-30 09:49:00,65.9,61.9,30.04,SSE,158,2.0,13.0,87,0.00,,,0.00,VWS V14.01,2013-03-30 14:49:00,
2013-03-30 09:54:00,66.0,62.0,30.04,SW,218,3.0,13.0,87,0.00,,,0.00,VWS V14.01,2013-03-30 14:54:00,
2013-03-30 09:59:00,66.0,62.0,30.04,SSE,163,5.0,13.0,87,0.00,,,0.00,VWS V14.01,2013-03-30 14:59:00,
2013-03-30 10:04:00,66.1,62.1,30.03,SE,129,4.0,10.0,87,0.00,,,0.00,VWS V14.01,2013-03-30 15:04:00,
2013-03-30 10:09:00,66.3,62.3,30.03,SSW,198,4.0,10.0,87,0.00,,,0.00,VWS V14.01,2013-03-30 15:09:00,
2013-03-30 10:14:00,66.5,62.5,30.03,SSE,159,5.0,10.0,87,0.00,,,0.00,VWS V14.01,2013-03-30 15:14:00,
2013-03-30 10:19:00,66.5,62.2,30.03,SSE,155,4.0,10.0,86,0.00,,,0.00,VWS V14.01,2013-03-30 15:19:00,
2013-03-30 10:24:00,66.7,62.4,30.03,West,263,8.0,10.0,86,0.00,,,0.00,VWS V14.01,2013-03-30 15:24:00,
2013-03-30 10:29:00,67.0,62.7,30.03,SSW,213,5.0,10.0,86,0.00,,,0.00,VWS V14.01,2013-03-30 15:29:00,
2013-03-30 10:34:00,67.3,62.6,30.03,SSE,165,3.0,11.0,85,0.00,,,0.00,VWS V14.01,2013-03-30 15:34:00,
2013-03-30 10:39:00,67.7,62.7,30.03,SSW,197,5.0,11.0,84,0.00,,,0.00,VWS V14.01,2013-03-30 15:39:00,
2013-03-30 10:44:00,68.1,63.1,30.03,SW,219,6.0,11.0,84,0.00,,,0.00,VWS V14.01,2013-03-30 15:44:00,
2013-03-30 10:49:00,68.7,63.3,30.03,South,180,4.0,12.0,83,0.00,,,0.00,VWS V14.01,2013-03-30 15:49:00,
2013-03-30 10:54:00,68.9,63.2,30.03,South,187,8.0,12.0,82,0.00,,,0.00,VWS V14.01,2013-03-30 15:54:00,
2013-03-30 10:59:00,69.0,63.3,30.03,SSW,194,2.0,12.0,82,0.00,,,0.00,VWS V14.01,2013-03-30 15:59:00,
2013-03-30 11:04:00,69.2,63.1,30.03,SE,145,3.0,6.0,81,0.00,,,0.00,VWS V14.01,2013-03-30 16:04:00,
2013-03-30 11:09:00,69.4,63.0,30.03,SSE,152,5.0,9.0,80,0.00,,,0.00,VWS V14.01,2013-03-30 16:09:00,
2013-03-30 11:14:00,69.7,62.9,30.02,West,264,4.0,9.0,79,0.00,,,0.00,VWS V14.01,2013-03-30 16:14:00,
2013-03-30 11:19:00,69.9,62.7,30.02,SW,215,5.0,9.0,78,0.00,,,0.00,VWS V14.01,2013-03-30 16:19:00,
2013-03-30 11:24:00,69.9,63.1,30.03,SW,219,7.0,10.0,79,0.00,,,0.00,VWS V14.01,2013-03-30 16:24:00,
2013-03-30 11:29:00,70.1,63.3,30.02,SSE,166,6.0,10.0,79,0.00,,,0.00,VWS V14.01,2013-03-30 16:29:00,
2013-03-30 11:34:00,70.5,63.3,30.02,SSE,155,6.0,10.0,78,0.00,,,0.00,VWS V14.01,2013-03-30 16:34:00,
2013-03-30 11:39:00,70.9,63.3,30.02,South,175,3.0,10.0,77,0.00,,,0.00,VWS V14.01,2013-03-30 16:39:00,
2013-03-30 11:44:00,71.4,63.5,30.02,SW,217,6.0,10.0,76,0.00,,,0.00,VWS V14.01,2013-03-30 16:44:00,
2013-03-30 11:49:00,71.6,63.6,30.02,SSE,148,2.0,10.0,76,0.00,,,0.00,VWS V14.01,2013-03-30 16:49:00,
2013-03-30 11:54:00,71.8,63.8,30.02,WSW,242,2.0,10.0,76,0.00,,,0.00,VWS V14.01,2013-03-30 16:54:00,
2013-03-30 11:59:00,72.0,63.3,30.02,SSW,210,3.0,10.0,74,0.00,,,0.00,VWS V14.01,2013-03-30 16:59:00,
2013-03-30 12:04:00,72.0,63.3,30.02,SW,229,5.0,11.0,74,0.00,,,0.00,VWS V14.01,2013-03-30 17:04:00,
2013-03-30 12:09:00,72.0,63.3,30.02,SE,140,7.0,11.0,74,0.00,,,0.00,VWS V14.01,2013-03-30 17:09:00,
2013-03-30 12:14:00,72.1,63.0,30.02,SW,230,9.0,11.0,73,0.00,,,0.00,VWS V14.01,2013-03-30 17:14:00,
2013-03-30 12:19:00,72.6,63.8,30.01,SW,224,7.0,11.0,74,0.00,,,0.00,VWS V14.01,2013-03-30 17:19:00,
2013-03-30 12:24:00,73.1,63.2,30.01,SSE,160,5.0,11.0,71,0.00,,,0.00,VWS V14.01,2013-03-30 17:24:00,
2013-03-30 12:29:00,73.9,63.5,30.01,South,172,6.0,13.0,70,0.00,,,0.00,VWS V14.01,2013-03-30 17:29:00,
2013-03-30 12:34:00,74.4,63.2,30.01,SW,233,3.0,9.0,68,0.00,,,0.00,VWS V14.01,2013-03-30 17:34:00,
2013-03-30 12:39:00,75.4,64.1,30.01,ESE,121,3.0,13.0,68,0.00,,,0.00,VWS V14.01,2013-03-30 17:39:00,
2013-03-30 12:44:00,76.1,63.9,30.00,SSE,153,5.0,13.0,66,0.00,,,0.00,VWS V14.01,2013-03-30 17:44:00,
2013-03-30 12:49:00,76.6,64.0,30.00,South,170,3.0,13.0,65,0.00,,,0.00,VWS V14.01,2013-03-30 17:49:00,
2013-03-30 12:54:00,76.5,63.9,30.00,SE,139,3.0,13.0,65,0.00,,,0.00,VWS V14.01,2013-03-30 17:54:00,
2013-03-30 12:59:00,76.4,63.8,30.00,SSW,198,4.0,13.0,65,0.00,,,0.00,VWS V14.01,2013-03-30 17:59:00,
2013-03-30 13:04:00,76.7,64.1,29.99,SSW,198,4.0,9.0,65,0.00,,,0.00,VWS V14.01,2013-03-30 18:04:00,
2013-03-30 13:09:00,77.0,63.0,29.99,SW,221,4.0,11.0,62,0.00,,,0.00,VWS V14.01,2013-03-30 18:09:00,
2013-03-30 13:14:00,76.6,63.1,29.99,SW,225,8.0,11.0,63,0.00,,,0.00,VWS V14.01,2013-03-30 18:14:00,
2013-03-30 13:19:00,76.4,63.3,29.99,SSE,149,7.0,11.0,64,0.00,,,0.00,VWS V14.01,2013-03-30 18:19:00,
2013-03-30 13:24:00,77.5,64.4,29.99,SSW,206,6.0,11.0,64,0.00,,,0.00,VWS V14.01,2013-03-30 18:24:00,
2013-03-30 13:29:00,77.5,63.0,29.99,SW,223,2.0,11.0,61,0.00,,,0.00,VWS V14.01,2013-03-30 18:29:00,
2013-03-30 13:34:00,77.7,63.2,29.99,South,181,4.0,10.0,61,0.00,,,0.00,VWS V14.01,2013-03-30 18:34:00,
2013-03-30 13:39:00,78.1,63.1,29.98,South,170,5.0,10.0,60,0.00,,,0.00,VWS V14.01,2013-03-30 18:39:00,
2013-03-30 13:44:00,78.8,64.2,29.98,SE,139,3.0,10.0,61,0.00,,,0.00,VWS V14.01,2013-03-30 18:44:00,
2013-03-30 13:49:00,79.2,62.7,29.97,SSW,201,6.0,13.0,57,0.00,,,0.00,VWS V14.01,2013-03-30 18:49:00,
2013-03-30 13:54:00,79.8,63.2,29.97,SSW,200,6.0,13.0,57,0.00,,,0.00,VWS V14.01,2013-03-30 18:54:00,
2013-03-30 13:59:00,80.3,63.2,29.97,SSE,161,8.0,13.0,56,0.00,,,0.00,VWS V14.01,2013-03-30 18:59:00,
2013-03-30 14:04:00,80.3,63.2,29.96,East,98,7.0,9.0,56,0.00,,,0.00,VWS V14.01,2013-03-30 19:04:00,
2013-03-30 14:09:00,80.5,62.9,29.96,South,169,4.0,9.0,55,0.00,,,0.00,VWS V14.01,2013-03-30 19:09:00,
2013-03-30 14:14:00,80.7,62.5,29.96,SSE,153,2.0,10.0,54,0.00,,,0.00,VWS V14.01,2013-03-30 19:14:00,
2013-03-30 14:19:00,81.2,62.5,29.95,SSW,193,4.0,11.0,53,0.00,,,0.00,VWS V14.01,2013-03-30 19:19:00,
2013-03-30 14:24:00,81.2,62.5,29.95,SW,221,6.0,11.0,53,0.00,,,0.00,VWS V14.01,2013-03-30 19:24:00,
2013-03-30 14:29:00,81.5,62.2,29.95,WSW,243,4.0,11.0,52,0.00,,,0.00,VWS V14.01,2013-03-30 19:29:00,
2013-03-30 14:34:00,81.3,62.5,29.95,SSW,193,6.0,6.0,53,0.00,,,0.00,VWS V14.01,2013-03-30 19:34:00,
2013-03-30 14:39:00,81.9,62.6,29.94,ESE,117,4.0,9.0,52,0.00,,,0.00,VWS V14.01,2013-03-30 19:39:00,
2013-03-30 14:44:00,82.2,62.8,29.94,SW,233,2.0,11.0,52,0.00,,,0.00,VWS V14.01,2013-03-30 19:44:00,
2013-03-30 14:49:00,82.2,62.3,29.93,SSE,160,3.0,11.0,51,0.00,,,0.00,VWS V14.01,2013-03-30 19:49:00,
2013-03-30 14:54:00,82.7,63.3,29.93,SSE,149,4.0,11.0,52,0.00,,,0.00,VWS V14.01,2013-03-30 19:54:00,
2013-03-30 14:59:00,82.6,63.8,29.93,SSE,166,3.0,11.0,53,0.00,,,0.00,VWS V14.01,2013-03-30 19:59:00,
2013-03-30 15:04:00,82.5,62.0,29.93,SW,214,2.0,5.0,50,0.00,,,0.00,VWS V14.01,2013-03-30 20:04:00,
2013-03-30 15:09:00,82.7,62.8,29.93,ENE,78,3.0,6.0,51,0.00,,,0.00,VWS V14.01,2013-03-30 20:09:00,
2013-03-30 15:14:00,83.3,61.6,29.92,SSW,198,6.0,9.0,48,0.00,,,0.00,VWS V14.01,2013-03-30 20:14:00,
2013-03-30 15:19:00,84.3,61.9,29.93,SE,134,4.0,10.0,47,0.00,,,0.00,VWS V14.01,2013-03-30 20:19:00,
2013-03-30 15:24:00,84.1,62.3,29.92,SSE,160,3.0,10.0,48,0.00,,,0.00,VWS V14.01,2013-03-30 20:24:00,
2013-03-30 15:29:00,83.3,61.0,29.92,SSW,196,5.0,11.0,47,0.00,,,0.00,VWS V14.01,2013-03-30 20:29:00,
2013-03-30 15:34:00,83.2,62.1,29.92,SE,138,5.0,10.0,49,0.00,,,0.00,VWS V14.01,2013-03-30 20:34:00,
2013-03-30 15:39:00,83.2,62.1,29.92,SSE,165,4.0,10.0,49,0.00,,,0.00,VWS V14.01,2013-03-30 20:39:00,
2013-03-30 15:44:00,82.7,61.0,29.92,SSE,160,3.0,10.0,48,0.00,,,0.00,VWS V14.01,2013-03-30 20:44:00,
2013-03-30 15:49:00,82.6,61.5,29.91,South,177,2.0,10.0,49,0.00,,,0.00,VWS V14.01,2013-03-30 20:49:00,
2013-03-30 15:54:00,82.3,61.2,29.91,SSE,149,5.0,11.0,49,0.00,,,0.00,VWS V14.01,2013-03-30 20:54:00,
2013-03-30 15:59:00,81.8,60.8,29.91,SSW,207,2.0,11.0,49,0.00,,,0.00,VWS V14.01,2013-03-30 20:59:00,
2013-03-30 16:04:00,82.6,61.5,29.90,SSW,201,3.0,12.0,49,0.00,,,0.00,VWS V14.01,2013-03-30 21:04:00,
2013-03-30 16:09:00,82.9,61.2,29.90,ESE,117,7.0,12.0,48,0.00,,,0.00,VWS V14.01,2013-03-30 21:09:00,
2013-03-30 16:14:00,83.3,62.2,29.90,SE,138,4.0,12.0,49,0.00,,,0.00,VWS V14.01,2013-03-30 21:14:00,
2013-03-30 16:19:00,83.1,61.4,29.90,South,169,3.0,12.0,48,0.00,,,0.00,VWS V14.01,2013-03-30 21:19:00,
2013-03-30 16:24:00,83.2,62.1,29.89,SE,139,7.0,12.0,49,0.00,,,0.00,VWS V14.01,2013-03-30 21:24:00,
2013-03-30 16:29:00,83.9,61.5,29.89,SSE,160,6.0,12.0,47,0.00,,,0.00,VWS V14.01,2013-03-30 21:29:00,
2013-03-30 16:34:00,84.5,62.1,29.89,SSE,153,4.0,9.0,47,0.00,,,0.00,VWS V14.01,2013-03-30 21:34:00,
2013-03-30 16:39:00,84.2,61.2,29.89,SW,218,7.0,12.0,46,0.00,,,0.00,VWS V14.01,2013-03-30 21:39:00,
2013-03-30 16:44:00,83.0,60.7,29.89,SE,135,5.0,12.0,47,0.00,,,0.00,VWS V14.01,2013-03-30 21:44:00,
2013-03-30 16:49:00,82.6,60.9,29.89,SE,139,2.0,12.0,48,0.00,,,0.00,VWS V14.01,2013-03-30 21:49:00,
2013-03-30 16:54:00,82.5,60.8,29.89,SSW,212,5.0,12.0,48,0.00,,,0.00,VWS V14.01,2013-03-30 21:54:00,
2013-03-30 16:59:00,82.4,60.8,29.89,SE,125,3.0,12.0,48,0.00,,,0.00,VWS V14.01,2013-03-30 21:59:00,
2013-03-30 17:04:00,82.6,60.9,29.88,SSE,167,4.0,6.0,48,0.00,,,0.00,VWS V14.01,2013-03-30 22:04:00,
2013-03-30 17:09:00,82.7,60.4,29.88,SE,144,4.0,6.0,47,0.00,,,0.00,VWS V14.01,2013-03-30 22:09:00,
2013-03-30 17:14:00,83.5,61.8,29.88,SSW,196,4.0,7.0,48,0.00,,,0.00,VWS V14.01,2013-03-30 22:14:00,
2013-03-30 17:19:00,84.0,61.0,29.88,SSW,208,3.0,9.0,46,0.00,,,0.00,VWS V14.01,2013-03-30 22:19:00,
2013-03-30 17:24:00,83.6,60.0,29.88,South,180,4.0,12.0,45,0.00,,,0.00,VWS V14.01,2013-03-30 22:24:00,
2013-03-30 17:29:00,83.0,60.1,29.88,WSW,239,2.0,12.0,46,0.00,,,0.00,VWS V14.01,2013-03-30 22:29:00,
2013-03-30 17:34:00,82.9,60.6,29.88,SE,134,2.0,7.0,47,0.00,,,0.00,VWS V14.01,2013-03-30 22:34:00,
2013-03-30 17:39:00,83.0,60.7,29.88,WSW,240,4.0,9.0,47,0.00,,,0.00,VWS V14.01,2013-03-30 22:39:00,
2013-03-30 17:44:00,82.9,61.2,29.87,South,186,5.0,9.0,48,0.00,,,0.00,VWS V14.01,2013-03-30 22:44:00,
2013-03-30 17:49:00,82.7,60.4,29.87,SSW,193,3.0,10.0,47,0.00,,,0.00,VWS V14.01,2013-03-30 22:49:00,
2013-03-30 17:54:00,83.1,60.8,29.87,SE,141,4.0,10.0,47,0.00,,,0.00,VWS V14.01,2013-03-30 22:54:00,
2013-03-30 17:59:00,83.4,60.5,29.87,SSW,208,6.0,10.0,46,0.00,,,0.00,VWS V14.01,2013-03-30 22:59:00,
2013-03-30 18:04:00,82.8,60.5,29.87,SSW,204,4.0,7.0,47,0.00,,,0.00,VWS V14.01,2013-03-30 23:04:00,
2013-03-30 18:09:00,82.4,60.8,29.87,SW,214,5.0,8.0,48,0.00,,,0.00,VWS V14.01,2013-03-30 23:09:00,
2013-03-30 18:14:00,82.3,60.7,29.86,SSW,210,5.0,9.0,48,0.00,,,0.00,VWS V14.01,2013-03-30 23:14:00,
2013-03-30 18:19:00,82.4,60.2,29.86,South,185,3.0,9.0,47,0.00,,,0.00,VWS V14.01,2013-03-30 23:19:00,
2013-03-30 18:24:00,82.4,60.8,29.86,South,191,3.0,9.0,48,0.00,,,0.00,VWS V14.01,2013-03-30 23:24:00,
2013-03-30 18:29:00,82.3,60.1,29.86,SSE,163,5.0,9.0,47,0.00,,,0.00,VWS V14.01,2013-03-30 23:29:00,
2013-03-30 18:34:00,82.5,60.3,29.86,SSE,166,2.0,7.0,47,0.00,,,0.00,VWS V14.01,2013-03-30 23:34:00,
2013-03-30 18:39:00,82.5,60.3,29.86,SSE,159,3.0,7.0,47,0.00,,,0.00,VWS V14.01,2013-03-30 23:39:00,
2013-03-30 18:44:00,82.1,59.9,29.86,SW,226,6.0,8.0,47,0.00,,,0.00,VWS V14.01,2013-03-30 23:44:00,
2013-03-30 18:49:00,81.8,59.6,29.86,SE,140,3.0,8.0,47,0.00,,,0.00,VWS V14.01,2013-03-30 23:49:00,
2013-03-30 18:54:00,81.6,60.0,29.86,WSW,243,2.0,8.0,48,0.00,,,0.00,VWS V14.01,2013-03-30 23:54:00,
2013-03-30 18:59:00,81.5,59.9,29.86,SSE,155,3.0,8.0,48,0.00,,,0.00,VWS V14.01,2013-03-30 23:59:00,
2013-03-30 19:03:00,81.4,60.4,29.85,SE,145,1.0,4.0,49,0.00,,,0.00,VWS V14.01,2013-03-31 00:03:00,
2013-03-30 19:08:00,81.1,60.2,29.86,South,187,3.0,5.0,49,0.00,,,0.00,VWS V14.01,2013-03-31 00:08:00,
2013-03-30 19:13:00,80.8,59.9,29.85,SW,214,5.0,6.0,49,0.00,,,0.00,VWS V14.01,2013-03-31 00:13:00,
2013-03-30 19:18:00,80.6,59.7,29.85,SE,133,3.0,6.0,49,0.00,,,0.00,VWS V14.01,2013-03-31 00:18:00,
2013-03-30 19:23:00,80.4,59.5,29.85,South,188,4.0,6.0,49,0.00,,,0.00,VWS V14.01,2013-03-31 00:23:00,
2013-03-30 19:28:00,80.3,60.0,29.85,SSE,154,1.0,6.0,50,0.00,,,0.00,VWS V14.01,2013-03-31 00:28:00,
2013-03-30 19:33:00,80.1,59.8,29.85,SE,146,1.0,3.0,50,0.00,,,0.00,VWS V14.01,2013-03-31 00:33:00,
2013-03-30 19:38:00,79.7,60.0,29.85,SSW,196,1.0,3.0,51,0.00,,,0.00,VWS V14.01,2013-03-31 00:38:00,
2013-03-30 19:43:00,79.3,60.2,29.85,SSE,148,1.0,3.0,52,0.00,,,0.00,VWS V14.01,2013-03-31 00:43:00,
2013-03-30 19:48:00,79.0,59.9,29.86,SSE,148,0.0,3.0,52,0.00,,,0.00,VWS V14.01,2013-03-31 00:48:00,
2013-03-30 19:53:00,78.6,60.1,29.86,South,172,0.0,3.0,53,0.00,,,0.00,VWS V14.01,2013-03-31 00:53:00,
2013-03-30 19:58:00,78.2,60.2,29.86,ESE,119,0.0,3.0,54,0.00,,,0.00,VWS V14.01,2013-03-31 00:58:00,
2013-03-30 20:03:00,77.8,59.8,29.86,ESE,118,0.0,1.0,54,0.00,,,0.00,VWS V14.01,2013-03-31 01:03:00,
2013-03-30 20:08:00,77.4,60.0,29.86,ESE,115,0.0,1.0,55,0.00,,,0.00,VWS V14.01,2013-03-31 01:08:00,
2013-03-30 20:13:00,77.1,60.2,29.86,ESE,118,0.0,1.0,56,0.00,,,0.00,VWS V14.01,2013-03-31 01:13:00,
2013-03-30 20:18:00,76.7,59.8,29.85,ESE,119,0.0,1.0,56,0.00,,,0.00,VWS V14.01,2013-03-31 01:18:00,
2013-03-30 20:23:00,76.5,59.7,29.86,SE,124,0.0,1.0,56,0.00,,,0.00,VWS V14.01,2013-03-31 01:23:00,
2013-03-30 20:28:00,76.2,59.9,29.86,SE,124,0.0,1.0,57,0.00,,,0.00,VWS V14.01,2013-03-31 01:28:00,
2013-03-30 20:33:00,76.0,59.7,29.86,SE,124,0.0,0.0,57,0.00,,,0.00,VWS V14.01,2013-03-31 01:33:00,
2013-03-30 20:38:00,75.7,59.9,29.86,ESE,111,1.0,1.0,58,0.00,,,0.00,VWS V14.01,2013-03-31 01:38:00,
2013-03-30 20:43:00,75.6,59.8,29.86,ESE,110,0.0,1.0,58,0.00,,,0.00,VWS V14.01,2013-03-31 01:43:00,
2013-03-30 20:48:00,75.6,59.8,29.86,SE,124,0.0,2.0,58,0.00,,,0.00,VWS V14.01,2013-03-31 01:48:00,
2013-03-30 20:53:00,75.5,59.7,29.86,ESE,115,1.0,2.0,58,0.00,,,0.00,VWS V14.01,2013-03-31 01:53:00,
2013-03-30 20:58:00,75.5,59.7,29.86,East,96,2.0,3.0,58,0.00,,,0.00,VWS V14.01,2013-03-31 01:58:00,
2013-03-30 21:03:00,75.7,59.9,29.86,ESE,118,3.0,3.0,58,0.00,,,0.00,VWS V14.01,2013-03-31 02:03:00,
2013-03-30 21:08:00,75.9,60.1,29.87,SE,129,3.0,5.0,58,0.00,,,0.00,VWS V14.01,2013-03-31 02:08:00,
2013-03-30 21:13:00,75.7,60.4,29.87,ESE,111,4.0,10.0,59,0.00,,,0.00,VWS V14.01,2013-03-31 02:13:00,
2013-03-30 21:18:00,75.1,61.2,29.87,East,89,4.0,10.0,62,0.00,,,0.00,VWS V14.01,2013-03-31 02:18:00,
2013-03-30 21:23:00,74.6,62.1,29.88,ESE,112,10.0,11.0,65,0.00,,,0.00,VWS V14.01,2013-03-31 02:23:00,
2013-03-30 21:28:00,74.4,63.2,29.88,ESE,104,8.0,13.0,68,0.00,,,0.00,VWS V14.01,2013-03-31 02:28:00,
2013-03-30 21:33:00,74.1,63.3,29.89,ESE,112,7.0,8.0,69,0.00,,,0.00,VWS V14.01,2013-03-31 02:33:00,
2013-03-30 21:38:00,73.9,63.5,29.89,ESE,121,11.0,11.0,70,0.00,,,0.00,VWS V14.01,2013-03-31 02:38:00,
2013-03-30 21:43:00,73.6,63.2,29.89,SE,127,5.0,11.0,70,0.00,,,0.00,VWS V14.01,2013-03-31 02:43:00,
2013-03-30 21:48:00,73.4,63.4,29.89,SE,141,5.0,11.0,71,0.00,,,0.00,VWS V14.01,2013-03-31 02:48:00,
2013-03-30 21:53:00,73.1,63.2,29.90,ESE,104,3.0,11.0,71,0.00,,,0.00,VWS V14.01,2013-03-31 02:53:00,
2013-03-30 21:58:00,72.8,63.3,29.90,SE,124,3.0,11.0,72,0.00,,,0.00,VWS V14.01,2013-03-31 02:58:00,
2013-03-30 22:03:00,72.5,63.0,29.90,East,89,8.0,10.0,72,0.00,,,0.00,VWS V14.01,2013-03-31 03:03:00,
2013-03-30 22:08:00,72.2,63.1,29.90,ESE,103,6.0,10.0,73,0.00,,,0.00,VWS V14.01,2013-03-31 03:08:00,
2013-03-30 22:14:00,72.0,62.9,29.90,South,170,5.0,13.0,73,0.00,,,0.00,VWS V14.01,2013-03-31 03:14:00,
2013-03-30 22:19:00,71.8,63.1,29.90,ESE,111,2.0,13.0,74,0.00,,,0.00,VWS V14.01,2013-03-31 03:19:00,
2013-03-30 22:24:00,71.4,63.1,29.90,ESE,103,5.0,13.0,75,0.00,,,0.00,VWS V14.01,2013-03-31 03:24:00,
2013-03-30 22:29:00,71.2,62.9,29.90,East,94,5.0,13.0,75,0.00,,,0.00,VWS V14.01,2013-03-31 03:29:00,
2013-03-30 22:34:00,71.0,63.1,29.91,SE,127,3.0,6.0,76,0.00,,,0.00,VWS V14.01,2013-03-31 03:34:00,
2013-03-30 22:39:00,70.8,62.9,29.91,South,176,2.0,8.0,76,0.00,,,0.00,VWS V14.01,2013-03-31 03:39:00,
2013-03-30 22:44:00,70.6,63.0,29.91,East,97,4.0,8.0,77,0.00,,,0.00,VWS V14.01,2013-03-31 03:44:00,
2013-03-30 22:49:00,70.3,62.8,29.91,East,99,5.0,8.0,77,0.00,,,0.00,VWS V14.01,2013-03-31 03:49:00,
2013-03-30 22:54:00,70.0,62.8,29.91,ESE,110,2.0,8.0,78,0.00,,,0.00,VWS V14.01,2013-03-31 03:54:00,
2013-03-30 22:59:00,69.7,62.9,29.91,SE,132,3.0,8.0,79,0.00,,,0.00,VWS V14.01,2013-03-31 03:59:00,
2013-03-30 23:00:00,69.6,62.8,29.91,SE,134,2.0,8.0,79,0.00,,,0.00,VWS V14.01,2013-03-31 04:00:00,
2013-03-30 23:05:00,69.4,63.0,29.91,ESE,117,5.0,8.0,80,0.00,,,0.00,VWS V14.01,2013-03-31 04:05:00,
2013-03-30 23:10:00,69.1,62.7,29.91,SE,145,1.0,8.0,80,0.00,,,0.00,VWS V14.01,2013-03-31 04:10:00,
2013-03-30 23:15:00,69.0,62.9,29.91,East,94,6.0,8.0,81,0.00,,,0.00,VWS V14.01,2013-03-31 04:15:00,
2013-03-30 23:20:00,68.8,62.7,29.92,ESE,108,7.0,8.0,81,0.00,,,0.00,VWS V14.01,2013-03-31 04:20:00,
2013-03-30 23:25:00,68.6,62.5,29.92,ESE,109,2.0,8.0,81,0.00,,,0.00,VWS V14.01,2013-03-31 04:25:00,
2013-03-30 23:30:00,68.4,62.7,29.92,ESE,106,4.0,8.0,82,0.00,,,0.00,VWS V14.01,2013-03-31 04:30:00,
2013-03-30 23:35:00,68.3,62.6,29.92,SE,127,3.0,5.0,82,0.00,,,0.00,VWS V14.01,2013-03-31 04:35:00,
2013-03-30 23:40:00,68.2,62.5,29.92,SSE,152,6.0,8.0,82,0.00,,,0.00,VWS V14.01,2013-03-31 04:40:00,
2013-03-30 23:45:00,68.1,62.8,29.92,SE,135,2.0,8.0,83,0.00,,,0.00,VWS V14.01,2013-03-31 04:45:00,
2013-03-30 23:50:00,68.0,62.7,29.91,South,179,2.0,8.0,83,0.00,,,0.00,VWS V14.01,2013-03-31 04:50:00,
2013-03-30 23:55:00,67.8,62.5,29.91,SE,135,4.0,8.0,83,0.00,,,0.00,VWS V14.01,2013-03-31 04:55:00,